Погода в Талице

Россия / Свердловская область     56°50′20″N   58°46′10″E
темп.,
°C
ветер,
м/с
пор.,
м/с
влажн.,
%
обл.,
%
осадки,
мм/ч
давл.,
гПа
погр.,
м
14 апреля, ср
ср1423:00+8юз2795100 0.0 1035254
02:00+7юз3998100 0.0 1034285
05:00+6юз379799 0.0 1034252
08:00+6ююз2697100 0.0 1033245
11:00+8юз359596 0.0 1033262
14:00+11зюз357999 0.0 1032421
17:00+13зюз34765 0.0 1030453
20:00+9ююз22948 0.0 102920
15 апреля, чт
чт1523:00+8ююз22945 0.0 102816
02:00+7ююз229575 0.0 102718
05:00+6ююз279861 0.0 1027122
08:00+6юз3697100 0.0 1026182
11:00+12юз595921 0.0 1024593
14:00+15зюз58495 0.0 1022985
17:00+16зюз49525 0.0 10211215
20:00+11юз27760 0.0 1020147
16 апреля, пт
пт1623:00+9юз310835 0.0 1020203
02:00+8зюз2584100 0.0 1019128
05:00+7с3897100 0.0 1021384
08:00+5св5989100 0.0 1023579
11:00+3всв5995100 0.1 1025524
14:00+5в3768100 0.1 1026870
17:00+8в345063 0.1 10251201
20:00+4в11665 0.0 102511
17 апреля, сб
сб1723:00+1в11725 0.0 102610
02:000св11735 0.0 102610
05:000с11725 0.0 102610
08:00+2с25620 0.0 1026279
11:00+6ссз35455 0.0 10251200
14:00+8сз464418 0.0 10231663
17:00+8сз4643100 0.0 10221963
20:00+5сз386070 0.0 1023288
18 апреля, вс
вс1823:00+2зсз287782 0.0 1023295
02:00+1зсз310845 0.0 1022420
05:000зсз312875 0.0 1021435
08:00+2сз5107898 0.0 10211013
11:00+3ссз6104211 0.2 10221935
14:00+3с5832100 0.0 10242532
17:00+2ссв6742100 0.0 10272115
20:00−2св47585 0.1 1031929